STOCKHOLM/BROMMA current weather conditions

sailwx.info

Wind from 190 at 6 knots

Air temperature 1.0° C
Visibility: greater than 5.4 NM
Dewpoint -1.0° C

Last reported at 2017-Apr-25 04:50 UTC.
Time now 2017-Apr-25 06:26 UTC

Location: N 59°21' E 017°57'.
View on Google Maps.

See reports from other nearby stations

  
Tides and Currents Weather Stations Pressure Air Temp Water Temp Dewpoint Dewpoint Depression Visibility Wind Speed Wind Dir Waves Ship Positions
date/time (UTC)wind fromknots sea level pressurealtimeterstation pressurevisibilityair tempwater tempwave heightnotes
2017-Apr-25 05:50 190 8 5.4 2.0
2017-Apr-25 05:20 190 6 5.4 1.0
2017-Apr-25 04:50 190 6 5.4 1.0
2017-Apr-25 04:20 180 6 5.4 1.0
2017-Apr-25 03:50 190 6 5.4 1.0
2017-Apr-25 03:20 190 6 5.4 1.0
2017-Apr-25 02:50 190 5 5.4 1.0
2017-Apr-25 02:20 190 6 5.4 1.0
2017-Apr-25 01:50 210 6 5.4 1.0
2017-Apr-25 01:20 210 6 1.1-0.0 Light snow.
2017-Apr-25 00:50 210 12 3.8 2.0 Light rain.
2017-Apr-25 00:20 210 8 5.4 3.0
2017-Apr-24 23:50 210 8 5.4 3.0
2017-Apr-24 23:20 200 7 5.4 3.0
2017-Apr-24 22:50 210 6 5.4 4.0
2017-Apr-24 22:20 200 6 5.4 4.0
2017-Apr-24 21:50 150 5 5.4 4.0
2017-Apr-24 21:20 150 4 4.3 4.0 Light rain.
2017-Apr-24 20:50 130 4 4.9 3.0
2017-Apr-24 20:20 120 5 5.4 3.0
2017-Apr-24 19:50 100 6 5.4 3.0
2017-Apr-24 19:20 110 7 5.4 3.0 Light drizzle.
2017-Apr-24 18:50 110 12 3.2 2.0 Light rain.
2017-Apr-24 18:20 120 13 3.2 2.0 Light rain.
2017-Apr-24 17:50 120 12 3.2 2.0 Light rain.
2017-Apr-24 17:20 110 14 2.7 2.0 Light drizzle snow.
2017-Apr-24 16:50 110 12 3.2 2.0 Light drizzle snow.
2017-Apr-24 16:20 110 13 3.2 2.0 Light drizzle snow.
2017-Apr-24 15:50 120 15 3.2 2.0 Light drizzle snow.
2017-Apr-24 15:20 120 15 3.2 3.0 Light rain.
2017-Apr-24 14:50 130 18 3.2 3.0 Light drizzle snow.
2017-Apr-24 14:20 150 18 gusting 28 5.4 4.0 Light drizzle.
2017-Apr-24 13:50 150 15 5.4 6.0
2017-Apr-24 13:20 150 17 5.4 7.0
2017-Apr-24 12:50 140 15 5.4 7.0
2017-Apr-24 11:50 140 13 5.4 8.0
2017-Apr-24 11:20 130 17 5.4 8.0
2017-Apr-24 10:50 150 13 5.4 8.0
2017-Apr-24 10:20 150 13 5.4 9.0
2017-Apr-24 09:50 170 9 5.4 9.0
2017-Apr-24 09:20 180 9 5.4 9.0
2017-Apr-24 08:50 180 9 5.4 9.0
2017-Apr-24 08:20 170 6 5.4 9.0
2017-Apr-24 07:50 190 6 5.4 8.0
2017-Apr-24 07:20 140 7 5.4 7.0
2017-Apr-24 06:50 150 5 5.4 7.0
2017-Apr-24 06:20 5.4 5.0
2017-Apr-24 05:50 5.4 4.0
2017-Apr-24 05:20 5.4 3.0
2017-Apr-24 04:50 5.4-0.0
2017-Apr-24 04:20 120 0 5.4-1.0
2017-Apr-24 03:50 5.4-3.0
2017-Apr-24 03:20 5.4-4.0
2017-Apr-24 02:50 5.4-3.0
2017-Apr-24 02:20 5.4-3.0
2017-Apr-24 01:50 5.4-3.0
2017-Apr-24 01:20 5.4-3.0
2017-Apr-24 00:50 5.4-2.0
2017-Apr-24 00:20 5.4-2.0
2017-Apr-23 23:50 5.4-2.0
2017-Apr-23 23:20 5.4-2.0
2017-Apr-23 22:50 5.4-1.0
2017-Apr-23 22:20 5.4-0.0
2017-Apr-23 21:50 5.4 1.0
2017-Apr-23 21:20 5.4 1.0
2017-Apr-23 20:50 180 4 5.4 2.0
2017-Apr-23 20:20 160 2 5.4 2.0
2017-Apr-23 19:50 140 5 5.4 4.0
2017-Apr-23 19:20 130 4 5.4 4.0
2017-Apr-23 18:50 130 5 5.4 5.0
2017-Apr-23 18:20 140 5 5.4 6.0
2017-Apr-23 17:50 150 5 5.4 6.0
2017-Apr-23 17:20 050 4 5.4 7.0
2017-Apr-23 16:50 5.4 6.0
2017-Apr-23 16:20 010 7 5.4 6.0
2017-Apr-23 15:50 280 7 5.4 7.0
2017-Apr-23 15:20 250 11 5.4 8.0
2017-Apr-23 14:50 250 8 5.4 8.0
2017-Apr-23 14:20 310 8 5.4 8.0
2017-Apr-23 13:50 290 5 5.4 8.0
2017-Apr-23 13:20 350 8 5.4 7.0
2017-Apr-23 12:50 280 13 5.4 9.0
2017-Apr-23 12:20 280 13 5.4 8.0
2017-Apr-23 11:50 310 11 5.4 7.0
2017-Apr-23 11:20 280 12 5.4 8.0
2017-Apr-23 10:50 280 13 5.4 8.0
2017-Apr-23 10:20 280 12 5.4 8.0
2017-Apr-23 09:50 260 11 5.4 7.0
2017-Apr-23 09:20 270 13 5.4 7.0
2017-Apr-23 08:50 270 9 5.4 7.0
2017-Apr-23 08:20 270 9 5.4 6.0
2017-Apr-23 07:50 270 9 5.4 6.0
2017-Apr-23 07:20 310 7 5.4 6.0
2017-Apr-23 06:50 310 8 5.4 5.0
2017-Apr-23 06:20 280 8 5.4 4.0